Location: Newark
(44.3681°N, 100.3364°W)
Time: 13:53:29
(UTC+00:00)

Explorer 7 - Pass Details

Date: 22 February 2020
Orbit: 485 x 679 km, 50.3° (Epoch: 29 March)

Event Time Altitude Azimuth Distance (km) Brightness Sun altitude
Rises 00:30:15 0° 297° (WNW) 2,756 11.3 -2.9°
Reaches altitude 10° 00:32:35 10° 294° (WNW) 1,823 10.4 -3.3°
Maximum altitude 00:36:41 65° 213° (SSW) 578 7.2 -4.1°
Drops below altitude 10° 00:40:32 10° 131° (SE) 1,716 9.0 -4.7°
Sets 00:42:40 0° 128° (SE) 2,576 9.8 -5.1°
